Tracking 20083 objects as of 10-Dec-2019
HD Live streaming from Space Station
objects crossing your sky now

STARLINK 1062

Track STARLINK 1062 now!
10-day predictions
STARLINK 1062 is classified as:


NORAD ID: 44767
Int'l Code: 2019-074BG
Perigee: 453.0 km
Apogee: 454.7 km
Inclination: 53.0 °
Period: 93.5 minutes
Semi major axis: 6824 km
RCS: Unknown
Launch date: November 11, 2019
Source: United States (US)
Launch site: AIR FORCE EASTERN TEST RANGE (AFETR)
aabbcc
Your satellite tracking list
Your tracking list is empty




NASA's NSSDC Master Catalog

Two Line Element Set (TLE):
1 44767U 19074BG  19344.58334491 -.00068408  00000-0 -17052-2 0  9992
2 44767  53.0054  28.5025 0001261  68.7988 236.7368 15.39799813  4559
Source of the keplerian elements: AFSPC